Location: Stockholm
(59.3293°N, 18.0686°E)
Time: 09:54:59
(UTC+02:00)

N. Korean satellite - Visible Passes

Search period start: 14 October 2019 00:00
Search period end: 24 October 2019 00:00
Orbit: 455 x 508 km, 97.2° (Epoch: 13 October)

Date Brightness Start Highest point End Pass type
(mag) Time Alt. Az. Time Alt. Az. Time Alt. Az.
14 Oct 9.2 06:10:18 10° NE 06:13:18 25° E 06:16:19 10° SSE visible
14 Oct 9.2 18:28:27 10° SSW 18:31:23 26° W 18:34:22 10° NW visible
15 Oct 10.0 05:45:32 10° NE 05:47:47 16° E 05:50:02 10° SE visible
16 Oct 10.4 19:13:27 10° WSW 19:14:38 11° W 19:15:49 10° WNW visible
17 Oct 8.4 06:27:36 10° NNE 06:30:56 36° E 06:34:17 10° SSE visible
17 Oct 9.8 18:46:32 10° SW 18:49:03 19° W 18:51:34 10° NW visible
18 Oct 9.5 06:02:36 10° NE 06:05:27 22° E 06:08:21 10° SE visible
18 Oct 8.8 18:20:27 10° SSW 18:23:32 30° W 18:26:40 10° NNW visible
19 Oct 10.1 05:37:58 10° NE 05:39:55 14° E 05:41:52 10° ESE visible
20 Oct 7.6 06:44:58 10° NNE 06:48:30 53° E 06:52:05 10° S visible
20 Oct 10.1 19:04:57 10° WSW 19:06:43 13° W 19:08:30 10° NW visible
21 Oct 8.8 06:19:49 10° NNE 06:23:05 31° E 06:26:23 10° SSE visible
21 Oct 9.5 18:38:24 10° SW 18:41:09 22° W 18:43:55 10° NW visible
22 Oct 9.7 05:54:53 10° NE 05:57:35 20° E 06:00:18 10° SE visible
22 Oct 8.4 18:12:25 10° SSW 18:15:38 36° W 18:18:55 10° NNW visible
23 Oct 10.3 05:30:27 10° ENE 05:31:59 12° E 05:33:33 10° ESE visible
